Location: Tafessasset
(32.5899°N, 5.4824°W)
Time: 13:07:23
(UTC+00:00)

Aureole 2 Rocket - Pass Details

Date: 18 February 2020
Orbit: 308 x 450 km, 73.9° (Epoch: 29 March)

Event Time Altitude Azimuth Distance (km) Brightness Sun altitude
Rises 04:56:15 0° 21° (NNE) 2,232 6.2 -27.2°
Enters shadow 06:03:24 -58° 338° (NNW) 11,176 9.4 -13.1°
Maximum altitude 06:33:36 43° 256° (WSW) 568 2.5 -6.8°
